H1 CPF 2 NER 2025 8 11 9 223 01 glonass131 H2 1301901 9131 39155 2025 8 11 0 0 0 2025 8 14 23 45 0 900 1 1 0 0 0 1 H9 10 0 60898 0.00000 0 16774937.883 -16155333.653 -10283753.616 10 0 60898 900.00000 0 15868515.441 -15012292.935 -13071977.651 10 0 60898 1800.00000 0 14893298.560 -13516418.333 -15604749.320 10 0 60898 2700.00000 0 13909375.736 -11685439.046 -17832561.189 10 0 60898 3600.00000 0 12973827.851 -9549930.993 -19711903.300 10 0 60898 4500.00000 0 12138228.823 -7152275.376 -21206125.894 10 0 60898 5400.00000 0 11446400.763 -4545121.887 -22286161.386 10 0 60898 6300.00000 0 10932519.898 -1789421.724 -22931091.014 10 0 60898 7200.00000 0 10619653.887 1047885.971 -23128545.250 10 0 60898 8100.00000 0 10518792.032 3896436.089 -22874930.920 10 0 60898 9000.00000 0 10628408.248 6685139.679 -22175481.793 10 0 60898 9900.00000 0 10934573.480 9344912.435 -21044133.241 10 0 60898 10800.00000 0 11411610.579 11811315.410 -19503225.208 10 0 60898 11700.00000 0 12023261.496 14026998.254 -17583041.145 10 0 60898 12600.00000 0 12724315.067 15943844.190 -15321193.788 10 0 60898 13500.00000 0 13462624.469 17524729.272 -12761871.459 10 0 60898 14400.00000 0 14181427.417 18744825.119 -9954961.041 10 0 60898 15300.00000 0 14821870.029 19592393.835 -6955065.966 10 0 60898 16200.00000 0 15325627.362 20069045.293 -3820439.159 10 0 60898 17100.00000 0 15637510.262 20189449.456 -611852.111 10 0 60898 18000.00000 0 15707949.410 19980518.899 2608577.872 10 0 60898 18900.00000 0 15495253.142 19480098.417 5778579.890 10 0 60898 19800.00000 0 14967545.531 18735218.573 8836918.927 10 0 60898 20700.00000 0 14104304.791 17799987.493 11724560.702 10 0 60898 21600.00000 0 12897438.747 16733209.498 14385791.005 10 0 60898 22500.00000 0 11351853.195 15595829.756 16769269.691 10 0 60898 23400.00000 0 9485489.638 14448310.755 18829000.951 10 0 60898 24300.00000 0 7328830.350 13348048.638 20525203.092 10 0 60898 25200.00000 0 4923890.084 12346935.553 21825062.884 10 0 60898 26100.00000 0 2322734.373 11489168.059 22703361.395 10 0 60898 27000.00000 0 -414416.707 10809391.591 23142960.281 10 0 60898 27900.00000 0 -3221423.744 10331257.534 23135139.610 10 0 60898 28800.00000 0 -6028712.740 10066452.913 22679780.466 10 0 60898 29700.00000 0 -8765909.624 10014243.738 21785387.920 10 0 60898 30600.00000 0 -11364518.106 10161552.371 20468952.373 10 0 60898 31500.00000 0 -13760531.940 10483567.574 18755649.864 10 0 60898 32400.00000 0 -15896874.500 10944863.931 16678384.688 10 0 60898 33300.00000 0 -17725564.675 11500986.111 14277180.521 10 0 60898 34200.00000 0 -19209518.411 12100433.582 11598429.333 10 0 60898 35100.00000 0 -20323909.488 12686963.948 8694010.377 10 0 60898 36000.00000 0 -21057030.902 13202118.795 5620294.609 10 0 60898 36900.00000 0 -21410618.641 13587865.423 2437052.876 10 0 60898 37800.00000 0 -21399622.295 13789241.864 -793711.204 10 0 60898 38700.00000 0 -21051430.478 13756891.421 -4008980.397 10 0 60898 39600.00000 0 -20404582.617 13449376.767 -7145970.003 10 0 60898 40500.00000 0 -19507021.183 12835172.499 -10143374.842 10 0 60898 41400.00000 0 -18413958.680 11894248.443 -12942590.449 10 0 60898 42300.00000 0 -17185450.849 10619173.509 -15488882.171 10 0 60898 43200.00000 0 -15883780.545 9015690.664 -17732476.906 10 0 60898 44100.00000 0 -14570765.145 7102736.593 -19629554.066 10 0 60898 45000.00000 0 -13305103.575 4911903.898 -21143114.636 10 0 60898 45900.00000 0 -12139877.111 2486367.940 -22243710.311 10 0 60898 46800.00000 0 -11120310.993 -120676.371 -22910017.924 10 0 60898 47700.00000 0 -10281892.163 -2848001.426 -23129248.101 10 0 60898 48600.00000 0 -9648922.449 -5628673.009 -22897380.870 10 0 60898 49500.00000 0 -9233567.319 -8392617.100 -22219224.827 10 0 60898 50400.00000 0 -9035438.582 -11069318.978 -21108300.249 10 0 60898 51300.00000 0 -9041726.283 -13590541.271 -19586550.227 10 0 60898 52200.00000 0 -9227871.486 -15892947.436 -17683887.322 10 0 60898 53100.00000 0 -9558748.671 -17920521.801 -15437586.456 10 0 60898 54000.00000 0 -9990305.091 -19626686.541 -12891537.592 10 0 60898 54900.00000 0 -10471585.517 -20976029.356 -10095374.274 10 0 60898 55800.00000 0 -10947055.041 -21945572.266 -7103496.211 10 0 60898 56700.00000 0 -11359120.732 -22525531.599 -3974005.831 10 0 60898 57600.00000 0 -11650745.282 -22719540.586 -767579.895 10 0 60898 58500.00000 0 -11768042.598 -22544328.319 2453701.764 10 0 60898 59400.00000 0 -11662746.734 -22028871.303 5627548.088 10 0 60898 60300.00000 0 -11294451.410 -21213055.253 8692646.922 10 0 60898 61200.00000 0 -10632527.294 -20145904.617 11589831.557 10 0 60898 62100.00000 0 -9657637.865 -18883454.536 14263202.710 10 0 60898 63000.00000 0 -8362791.335 -17486354.036 16661186.095 10 0 60898 63900.00000 0 -6753885.124 -16017299.685 18737507.101 10 0 60898 64800.00000 0 -4849719.988 -14538405.393 20452065.756 10 0 60898 65700.00000 0 -2681482.256 -13108616.193 21771696.942 10 0 60898 66600.00000 0 -291714.030 -11781271.898 22670802.703 10 0 60898 67500.00000 0 2267188.289 -10601920.318 23131845.503 10 0 60898 68400.00000 0 4934887.800 -9606469.734 23145693.416 10 0 60898 69300.00000 0 7645357.129 -8819756.777 22711810.378 10 0 60898 70200.00000 0 10329374.683 -8254589.273 21838286.965 10 0 60898 71100.00000 0 12917166.739 -7911304.597 20541709.573 10 0 60898 72000.00000 0 15341088.225 -7777863.275 18846868.471 10 0 60898 72900.00000 0 17538232.652 -7830475.685 16786307.897 10 0 60898 73800.00000 0 19452863.534 -8034737.692 14399724.304 10 0 60898 74700.00000 0 21038565.892 -8347229.598 11733221.834 10 0 60898 75600.00000 0 22260027.121 -8717512.920 8838437.201 10 0 60898 76500.00000 0 23094371.041 -9090442.039 5771549.197 10 0 60898 77400.00000 0 23531987.122 -9408693.548 2592191.010 10 0 60898 78300.00000 0 23576817.756 -9615405.842 -637713.792 10 0 60898 79200.00000 0 23246089.428 -9656815.826 -3855168.485 10 0 60898 80100.00000 0 22569497.437 -9484778.754 -6997348.616 10 0 60898 81000.00000 0 21587877.602 -9059061.572 -10002849.528 10 0 60898 81900.00000 0 20351420.883 -8349309.300 -12812909.386 10 0 60898 82800.00000 0 18917506.984 -7336597.931 -15372581.343 10 0 60898 83700.00000 0 17348249.829 -6014505.036 -17631829.547 10 0 60898 84600.00000 0 15707860.480 -4389650.343 -19546525.442 10 0 60898 85500.00000 0 14059940.953 -2481681.651 -21079323.153 10 0 60899 0.00000 0 12464825.349 -322705.871 -22200395.633 10 0 60899 900.00000 0 10977081.231 2043812.311 -22888017.206 10 0 60899 1800.00000 0 9643279.761 4564634.455 -23128979.806 10 0 60899 2700.00000 0 8500125.910 7178751.555 -22918837.504 10 0 60899 3600.00000 0 7573028.960 9819718.441 -22261974.091 10 0 60899 4500.00000 0 6875171.107 12418221.609 -21171494.649 10 0 60899 5400.00000 0 6407111.199 14904772.012 -19668944.854 10 0 60899 6300.00000 0 6156937.464 17212409.783 -17783865.360 10 0 60899 7200.00000 0 6100959.590 19279308.012 -15553191.830 10 0 60899 8100.00000 0 6204907.815 21051167.639 -13020514.030 10 0 60899 9000.00000 0 6425585.452 22483304.913 -10235209.939 10 0 60899 9900.00000 0 6712902.642 23542346.285 -7251472.989 10 0 60899 10800.00000 0 7012203.650 24207462.520 -4127252.274 10 0 60899 11700.00000 0 7266788.345 24471093.269 -923126.792 10 0 60899 12600.00000 0 7420521.115 24339134.745 2298864.267 10 0 60899 13500.00000 0 7420417.504 23830585.341 5476412.877 10 0 60899 14400.00000 0 7219100.437 22976666.342 8548132.876 10 0 60899 15300.00000 0 6777023.865 21819456.129 11454728.116 10 0 60899 16200.00000 0 6064371.672 20410095.894 14140117.044 10 0 60899 17100.00000 0 5062553.334 18806641.907 16552493.805 10 0 60899 18000.00000 0 3765234.458 17071653.297 18645307.297 10 0 60899 18900.00000 0 2178859.305 15269614.605 20378141.311 10 0 60899 19800.00000 0 322642.952 13464298.639 21717480.603 10 0 60899 20700.00000 0 -1771967.911 11716177.360 22637349.629 10 0 60899 21600.00000 0 -4062345.187 10079986.426 23119812.752 10 0 60899 22500.00000 0 -6496199.706 8602542.838 23155326.749 10 0 60899 23400.00000 0 -9013511.736 7320905.145 22742938.655 10 0 60899 24300.00000 0 -11548794.902 6260951.990 21890324.317 10 0 60899 25200.00000 0 -14033602.866 5436438.209 20613665.376 10 0 60899 26100.00000 0 -16399177.489 4848568.513 18937365.045 10 0 60899 27000.00000 0 -18579130.633 4486107.860 16893605.734 10 0 60899 27900.00000 0 -20512049.326 4326025.583 14521754.435 10 0 60899 28800.00000 0 -22143916.038 4334648.156 11867624.851 10 0 60899 29700.00000 0 -23430242.407 4469273.901 8982608.284 10 0 60899 30600.00000 0 -24337825.671 4680183.003 5922688.309 10 0 60899 31500.00000 0 -24846052.094 4912958.733 2747357.345 10 0 60899 32400.00000 0 -24947690.175 5111021.679 -481544.205 10 0 60899 33300.00000 0 -24649137.843 5218268.729 -3701043.172 10 0 60899 34200.00000 0 -23970111.016 5181703.154 -6848278.303 10 0 60899 35100.00000 0 -22942785.090 4953941.734 -9861748.298 10 0 60899 36000.00000 0 -21610424.739 4495489.594 -12682536.629 10 0 60899 36900.00000 0 -20025559.871 3776683.065 -15255486.733 10 0 60899 37800.00000 0 -18247785.549 2779215.139 -17530302.210 10 0 60899 38700.00000 0 -16341280.170 1497176.210 -19462548.411 10 0 60899 39600.00000 0 -14372148.438 -62436.039 -21014534.037 10 0 60899 40500.00000 0 -12405703.108 -1879760.523 -22156054.436 10 0 60899 41400.00000 0 -10503801.719 -3922669.195 -22864981.477 10 0 60899 42300.00000 0 -8722351.708 -6147890.815 -23127688.598 10 0 60899 43200.00000 0 -7109089.385 -8502614.122 -22939303.360 10 0 60899 44100.00000 0 -5701725.814 -10926502.075 -22303783.756 10 0 60899 45000.00000 0 -4526536.327 -13354031.441 -21233818.273 10 0 60899 45900.00000 0 -3597450.866 -15717058.624 -19750553.433 10 0 60899 46800.00000 0 -2915680.600 -17947503.517 -17883155.985 10 0 60899 47700.00000 0 -2469893.271 -19980038.741 -15668220.149 10 0 60899 48600.00000 0 -2236926.382 -21754672.052 -13149033.205 10 0 60899 49500.00000 0 -2183004.786 -23219114.884 -10374715.254 10 0 60899 50400.00000 0 -2265408.269 -24330839.470 -7399251.187 10 0 60899 51300.00000 0 -2434516.304 -25058740.622 -4280434.592 10 0 60899 52200.00000 0 -2636141.913 -25384335.103 -1078744.647 10 0 60899 53100.00000 0 -2814055.170 -25302451.055 2143822.031 10 0 60899 54000.00000 0 -2912589.687 -24821381.213 5324942.274 10 0 60899 54900.00000 0 -2879222.653 -23962495.786 8403157.657 10 0 60899 55800.00000 0 -2667020.733 -22759332.952 11319044.285 10 0 60899 56700.00000 0 -2236850.182 -21256206.072 14016339.974 10 0 60899 57600.00000 0 -1559259.640 -19506386.096 16443008.871 10 0 60899 58500.00000 0 -615957.665 -17569934.497 18552224.886 10 0 60899 59400.00000 0 599176.209 -15511275.866 20303256.955 10 0 60899 60300.00000 0 2079589.267 -13396609.366 21662240.927 10 0 60899 61200.00000 0 3806084.011 -11291264.593 22602824.725 10 0 60899 62100.00000 0 5747377.629 -9257109.392 23106675.457 10 0 60899 63000.00000 0 7861171.642 -7350115.105 23163839.230 10 0 60899 63900.00000 0 10095690.183 -5618178.575 22772946.606 10 0 60899 64800.00000 0 12391626.297 -4099290.130 21941258.905 10 0 60899 65700.00000 0 14684418.727 -2820123.091 20684553.018 10 0 60899 66600.00000 0 16906767.641 -1795103.696 19026844.893 10 0 60899 67500.00000 0 18991287.163 -1026000.999 16999954.664 10 0 60899 68400.00000 0 20873186.028 -502055.194 14642919.169 10 0 60899 69300.00000 0 22492865.276 -200640.629 12001260.699 10 0 60899 70200.00000 0 23798324.284 -88437.408 9126123.824 10 0 60899 71100.00000 0 24747273.225 -123063.699 6073295.247 10 0 60899 72000.00000 0 25308861.411 -255100.976 2902124.598 10 0 60899 72900.00000 0 25464946.420 -430426.862 -325633.235 10 0 60899 73800.00000 0 25210847.925 -592756.375 -3547031.274 10 0 60899 74700.00000 0 24555551.858 -686282.493 -6699174.288 10 0 60899 75600.00000 0 23521354.130 -658301.937 -9720467.248 10 0 60899 76500.00000 0 22142957.461 -461712.075 -12551841.844 10 0 60899 77400.00000 0 20466058.710 -57269.951 -15137934.615 10 0 60899 78300.00000 0 18545486.490 584485.426 -17428191.293 10 0 60899 79200.00000 0 16442968.472 1481731.834 -19377873.616 10 0 60899 80100.00000 0 14224623.994 2640349.538 -20948947.153 10 0 60899 81000.00000 0 11958289.292 4053438.481 -22110831.609 10 0 60899 81900.00000 0 9710789.634 5701388.293 -22840998.391 10 0 60899 82800.00000 0 7545274.495 7552498.331 -23125403.788 10 0 60899 83700.00000 0 5518728.545 9564121.130 -22958749.958 10 0 60899 84600.00000 0 3679762.977 11684280.251 -22344569.772 10 0 60899 85500.00000 0 2066779.071 13853693.262 -21295135.331 10 0 60900 0.00000 0 706579.418 16008113.485 -19831193.870 10 0 60900 900.00000 0 -386518.156 18080892.344 -17981537.180 10 0 60900 1800.00000 0 -1211028.147 20005651.280 -15782416.869 10 0 60900 2700.00000 0 -1778097.811 21718954.909 -13276815.990 10 0 60900 3600.00000 0 -2110770.691 23162870.988 -10513594.611 10 0 60900 4500.00000 0 -2242748.498 24287312.070 -7546526.552 10 0 60900 5400.00000 0 -2216706.431 25052062.226 -4433247.078 10 0 60900 6300.00000 0 -2082235.377 25428405.967 -1234132.514 10 0 60900 7200.00000 0 -1893499.380 25400293.441 1988866.272 10 0 60900 8100.00000 0 -1706707.979 24964995.531 5173414.181 10 0 60900 9000.00000 0 -1577509.972 24133223.593 8257983.706 10 0 60900 9900.00000 0 -1558417.792 22928710.648 11183026.264 10 0 60900 10800.00000 0 -1696369.750 21387272.741 13892101.935 10 0 60900 11700.00000 0 -2030531.335 19555390.134 16332947.552 10 0 60900 12600.00000 0 -2590426.535 17488367.218 18458464.473 10 0 60900 13500.00000 0 -3394476.554 15248146.746 20227608.955 10 0 60900 14400.00000 0 -4449006.617 12900867.575 21606169.836 10 0 60900 15300.00000 0 -5747762.644 10514265.261 22567420.081 10 0 60900 16200.00000 0 -7271959.001 8155020.938 23092630.765 10 0 60900 17100.00000 0 -8990857.243 5886166.038 23171438.157 10 0 60900 18000.00000 0 -10862854.260 3764648.311 22802056.717 10 0 60900 18900.00000 0 -12837037.614 1839158.382 21991333.125 10 0 60900 19800.00000 0 -14855146.628 148305.951 20754638.859 10 0 60900 20700.00000 0 -16853860.777 -1280778.905 19115601.407 10 0 60900 21600.00000 0 -18767322.891 -2433360.817 17105676.884 10 0 60900 22500.00000 0 -20529794.101 -3307491.474 14763569.736 10 0 60900 23400.00000 0 -22078330.907 -3913861.423 12134508.161 10 0 60900 24300.00000 0 -23355372.646 -4275115.966 9269386.994 10 0 60900 25200.00000 0 -24311130.212 -4424662.330 6223792.816 10 0 60900 26100.00000 0 -24905674.047 -4405017.147 3056929.085 10 0 60900 27000.00000 0 -25110631.273 -4265763.366 -169538.246 10 0 60900 27900.00000 0 -24910417.698 -4061203.057 -3392691.777 10 0 60900 28800.00000 0 -24302949.872 -3847806.464 -6549605.598 10 0 60900 29700.00000 0 -23299804.515 -3681567.119 -9578594.116 10 0 60900 30600.00000 0 -21925816.475 -3615377.587 -12420440.227 10 0 60900 31500.00000 0 -20218130.793 -3696540.000 -15019576.325 10 0 60900 32400.00000 0 -18224748.349 -3964519.921 -17325192.715 10 0 60900 33300.00000 0 -16002626.664 -4449041.647 -19292249.578 10 0 60900 34200.00000 0 -13615416.878 -5168608.100 -20882370.912 10 0 60900 35100.00000 0 -11130933.558 -6129509.788 -22064601.780 10 0 60900 36000.00000 0 -8618465.329 -7325365.910 -22816013.507 10 0 60900 36900.00000 0 -6146040.792 -8737217.309 -23122144.983 10 0 60900 37800.00000 0 -3777765.512 -10334167.060 -22977272.120 10 0 60900 38700.00000 0 -1571342.149 -12074540.792 -22384501.267 10 0 60900 39600.00000 0 424122.713 -13907516.597 -21355686.277 10 0 60900 40500.00000 0 2169934.449 -15775154.558 -19911172.553 10 0 60900 41400.00000 0 3639175.041 -17614739.223 -18079374.917 10 0 60900 42300.00000 0 4817562.178 -19361335.506 -15896199.404 10 0 60900 43200.00000 0 5703770.204 -20950450.065 -13404321.979 10 0 60900 44100.00000 0 6309203.209 -22320686.343 -10652339.777 10 0 60900 45000.00000 0 6657233.498 -23416282.343 -7693812.693 10 0 60900 45900.00000 0 6781940.976 -24189425.781 -4586214.905 10 0 60900 46800.00000 0 6726409.449 -24602251.088 -1389817.271 10 0 60900 47700.00000 0 6540653.825 -24628436.457 1833477.495 10 0 60900 48600.00000 0 6279266.967 -24254336.154 5021324.566 10 0 60900 49500.00000 0 5998885.896 -23479602.666 8112129.315 10 0 60900 50400.00000 0 5755583.832 -22317274.458 11046220.204 10 0 60900 51300.00000 0 5602296.993 -20793326.934 13766981.060 10 0 60900 52200.00000 0 5586393.064 -18945705.991 16221922.656 10 0 60900 53100.00000 0 5747482.045 -16822884.354 18363674.805 10 0 60900 54000.00000 0 6115559.966 -14481999.927 20150881.837 10 0 60900 54900.00000 0 6709562.288 -11986651.975 21548986.084 10 0 60900 55800.00000 0 7536387.176 -9404444.510 22530885.801 10 0 60900 56700.00000 0 8590429.850 -6804376.273 23077456.044 10 0 60900 57600.00000 0 9853648.671 -4254182.832 23177923.027 10 0 60900 58500.00000 0 11296162.228 -1817738.432 22830084.703 10 0 60900 59400.00000 0 12877355.135 447376.864 22040372.530 10 0 60900 60300.00000 0 14547449.534 2492045.491 20823751.858 10 0 60900 61200.00000 0 16249479.920 4277426.953 19203460.864 10 0 60900 62100.00000 0 17921591.869 5776343.394 17210590.684 10 0 60900 63000.00000 0 19499571.160 6974177.865 14883512.281 10 0 60900 63900.00000 0 20919499.185 7869246.635 12267158.529 10 0 60900 64800.00000 0 22120424.188 8472628.497 9412173.119 10 0 60900 65700.00000 0 23046935.995 8807456.627 6373940.912 10 0 60900 66600.00000 0 23651534.737 8907701.380 3211517.386 10 0 60900 67500.00000 0 23896691.765 8816494.360 -13522.450 10 0 60900 68400.00000 0 23756513.180 8584064.241 -3238292.948 10 0 60900 69300.00000 0 23217932.760 8265372.134 -6399839.798 10 0 60900 70200.00000 0 22281380.971 7917547.907 -9436389.180 10 0 60900 71100.00000 0 20960899.174 7597238.114 -12288577.489 10 0 60900 72000.00000 0 19283692.185 7357980.530 -14900635.195 10 0 60900 72900.00000 0 17289136.884 7247719.417 -17221499.275 10 0 60900 73800.00000 0 15027288.236 7306569.674 -19205830.314 10 0 60900 74700.00000 0 12556946.102 7564927.126 -20814912.556 10 0 60900 75600.00000 0 9943365.155 8042006.955 -22017418.108 10 0 60900 76500.00000 0 7255705.518 8744873.406 -22790019.733 10 0 60900 77400.00000 0 4564332.601 9668002.317 -23117840.247 10 0 60900 78300.00000 0 1938080.580 10793394.694 -22994730.366 10 0 60900 79200.00000 0 -558405.130 12091235.707 -22423370.637 10 0 60900 80100.00000 0 -2867135.076 13521069.928 -21415196.971 10 0 60900 81000.00000 0 -4938950.190 15033441.695 -19990152.923 10 0 60900 81900.00000 0 -6735314.134 16571929.883 -18176275.431 10 0 60900 82800.00000 0 -8229650.956 18075489.948 -16009123.926 10 0 60900 83700.00000 0 -9408175.206 19481003.627 -13531065.691 10 0 60900 84600.00000 0 -10270183.302 20725928.453 -10790432.944 10 0 60900 85500.00000 0 -10827797.680 21750935.688 -7840569.327 10 0 60901 0.00000 0 -11105178.154 22502426.320 -4738785.638 10 0 60901 900.00000 0 -11137237.053 22934820.919 -1545243.951 10 0 60901 1800.00000 0 -10967914.598 23012527.790 1678203.788 10 0 60901 2700.00000 0 -10648089.527 22711510.007 4869205.958 10 0 60901 3600.00000 0 -10233213.605 22020386.408 7966103.749 10 0 60901 4500.00000 0 -9780770.007 20941022.595 10909105.553 10 0 60901 5400.00000 0 -9347661.984 19488588.456 13641421.743 10 0 60901 6300.00000 0 -8987640.443 17691080.549 16110339.686 10 0 60901 7200.00000 0 -8748877.058 15588329.327 18268220.133 10 0 60901 8100.00000 0 -8671783.160 13230531.855 20073397.769 10 0 60901 9000.00000 0 -8787164.435 10676369.532 21490970.446 10 0 60901 9900.00000 0 -9114787.766 7990786.954 22493463.453 10 0 60901 10800.00000 0 -9662419.845 5242521.424 23061357.228 10 0 60901 11700.00000 0 -10425378.253 2501482.682 23183468.959 10 0 60901 12600.00000 0 -11386615.036 -163911.385 22857180.664 10 0 60901 13500.00000 0 -12517331.359 -2689335.251 22088508.680 10 0 60901 14400.00000 0 -13778100.193 -5016986.740 20892011.800 10 0 60901 15300.00000 0 -15120453.103 -7097749.004 19290537.916 10 0 60901 16200.00000 0 -16488867.790 -8892994.286 17314811.677 10 0 60901 17100.00000 0 -17823075.907 -10375954.231 15002868.544 10 0 60901 18000.00000 0 -19060596.551 -11532598.717 12399343.594 10 0 60901 18900.00000 0 -20139390.362 -12361985.131 9554626.528 10 0 60901 19800.00000 0 -21000522.980 -12876061.819 6523897.346 10 0 60901 20700.00000 0 -21590724.961 -13098932.373 3366060.215 10 0 60901 21600.00000 0 -21864738.550 -13065610.433 142595.758 10 0 60901 22500.00000 0 -21787349.784 -12820316.792 -3083645.605 10 0 60901 23400.00000 0 -21335017.127 -12414390.734 -6249684.627 10 0 60901 24300.00000 0 -20497024.641 -11903904.754 -9293662.629 10 0 60901 25200.00000 0 -19276107.986 -11347085.237 -12156072.755 10 0 60901 26100.00000 0 -17688524.245 -10801650.530 -14780946.588 10 0 60901 27000.00000 0 -15763560.799 -10322181.831 -17116970.536 10 0 60901 27900.00000 0 -13542502.912 -9957640.975 -19118507.956 10 0 60901 28800.00000 0 -11077103.316 -9749142.792 -20746505.232 10 0 60901 29700.00000 0 -8427618.731 -9728078.445 -21969262.817 10 0 60901 30600.00000 0 -5660496.792 -9914670.564 -22763055.579 10 0 60901 31500.00000 0 -2845811.809 -10317021.942 -23112590.258 10 0 60901 32400.00000 0 -54558.089 -10930697.857 -23011291.720 10 0 60901 33300.00000 0 2644084.923 -11738858.794 -22461413.460 10 0 60901 34200.00000 0 5185400.785 -12712936.534 -21473971.667 10 0 60901 35100.00000 0 7511587.065 -13813823.265 -20068505.842 10 0 60901 36000.00000 0 9573907.890 -14993521.646 -18272672.472 10 0 60901 36900.00000 0 11334459.907 -16197184.355 -16121681.529 10 0 60901 37800.00000 0 12767480.500 -17365455.625 -13657588.542 10 0 60901 38700.00000 0 13860146.743 -18437014.990 -10928457.565 10 0 60901 39600.00000 0 14612835.221 -19351215.553 -7987412.653 10 0 60901 40500.00000 0 15038835.514 -20050705.766 -4891597.294 10 0 60901 41400.00000 0 15163532.896 -20483925.051 -1701062.582 10 0 60901 42300.00000 0 15023097.616 -20607369.428 1522394.016 10 0 60901 43200.00000 0 14662738.270 -20387533.469 4716417.025 10 0 60901 44100.00000 0 14134594.287 -19802448.700 7819286.089 10 0 60901 45000.00000 0 13495356.885 -18842755.540 10771091.795 10 0 60901 45900.00000 0 12803718.361 -17512265.250 13514872.917 10 0 60901 46800.00000 0 12117756.071 -15827989.210 15997694.833 10 0 60901 47700.00000 0 11492359.523 -13819634.548 18171650.224 10 0 60901 48600.00000 0 10976806.854 -11528586.606 19994764.690 10 0 60901 49500.00000 0 10612590.529 -9006419.277 21431791.766 10 0 60901 50400.00000 0 10431581.885 -6312993.128 22454883.561 10 0 60901 51300.00000 0 10454610.345 -3514217.656 23044125.349 10 0 60901 52200.00000 0 10690516.460 -679567.490 23187924.435 10 0 60901 53100.00000 0 11135718.898 2120547.561 22883245.811 10 0 60901 54000.00000 0 11774314.802 4817452.576 22135689.375 10 0 60901 54900.00000 0 12578711.364 7346809.529 20959405.888 10 0 60901 55800.00000 0 13510764.753 9651045.159 19376851.362 10 0 60901 56700.00000 0 14523381.486 11681504.938 17418382.267 10 0 60901 57600.00000 0 15562517.873 13400243.815 15121696.790 10 0 60901 58500.00000 0 16569495.932 14781378.513 12531130.374 10 0 60901 59400.00000 0 17483540.108 15811943.729 9696816.818 10 0 60901 60300.00000 0 18244428.791 16492214.766 6673729.280 10 0 60901 61200.00000 0 18795148.627 16835481.288 3520618.567 10 0 60901 62100.00000 0 19084438.340 16867280.118 298868.817 10 0 60901 63000.00000 0 19069112.473 16624118.214 -2928706.893 10 0 60901 63900.00000 0 18716064.000 16151739.179 -6099106.457 10 0 60901 64800.00000 0 18003857.908 15503006.851 -9150388.330 10 0 60901 65700.00000 0 16923845.175 14735496.493 -12022904.262 10 0 60901 66600.00000 0 15480747.065 13908897.360 -14660488.645 10 0 60901 67500.00000 0 13692682.701 13082338.852 -17011578.830 10 0 60901 68400.00000 0 11590637.089 12311756.010 -19030242.305 10 0 60901 69300.00000 0 9217391.189 11647408.365 -20677088.798 10 0 60901 70200.00000 0 6625959.064 11131659.260 -21920048.199 10 0 60901 71100.00000 0 3877598.343 10797111.141 -22734998.448 10 0 60901 72000.00000 0 1039478.629 10665176.451 -23106231.029 10 0 60901 72900.00000 0 -1817893.247 10745144.480 -23026745.579 10 0 60901 73800.00000 0 -4623382.223 11033782.787 -22498368.899 10 0 60901 74700.00000 0 -7307954.178 11515488.496 -21531697.465 10 0 60901 75600.00000 0 -9807311.048 12162981.113 -20145866.330 10 0 60901 76500.00000 0 -12064322.388 12938505.349 -18368150.702 10 0 60901 77400.00000 0 -14031153.073 13795490.919 -16233409.852 10 0 60901 78300.00000 0 -15671000.390 14680597.235 -13783385.933 10 0 60901 79200.00000 0 -16959370.627 15536055.057 -11065872.905 10 0 60901 80100.00000 0 -17884845.024 16302205.239 -8133773.070 10 0 60901 81000.00000 0 -18449306.487 16920127.014 -5044060.553 10 0 60901 81900.00000 0 -18667621.089 17334245.199 -1856672.467 10 0 60901 82800.00000 0 -18566790.913 17494807.200 1366650.442 10 0 60901 83700.00000 0 -18184616.530 17360126.727 4563551.401 10 0 60901 84600.00000 0 -17567927.252 16898501.335 7672251.077 10 0 60901 85500.00000 0 -16770454.660 16089724.747 10632724.832 99